[[{"header":{"parameterUnit":"m.s-1","parameterCategory":1,"la1":30.2991,"la2":30.254,"lo1":-89.0895,"lo2":-89.0444,"dx":0.0017,"dy":0.0017,"nx":28,"ny":28,"refTime":"2022-11-15T09:00:00:Z","depth":0,"parameterNumber":2,"parameterNumberName":"U-component_of_WINDS"},"data":[0,0,0,0,0,0,0,0,0,0,0,0,0,0,0,0,0,0,0,0,0,0,0,0,0,0,0,0,0,0,0,0,0,0,0,0,0,0,0,0,0,0,0,0,0,0,0,0,0,0,0,0,0,0,0,0,0,0,3.7102,3.7103,0,3.7148,3.7149,3.7149,3.7114,3.7113,3.7111,3.711,3.7156,3.7159,3.7161,0,0,0,0,0,0,0,0,0,0,0,0,0,3.6985,3.6988,3.7102,3.7103,3.7103,3.7148,3.7149,3.7149,3.7115,3.7113,3.7111,3.7109,3.7155,3.7158,3.7161,0,0,0,0,0,0,0,0,0,0,0,0,0,3.7034,3.6988,3.7102,3.7091,3.7091,3.7148,3.7149,3.715,3.7115,3.7113,3.711,3.7108,3.7154,3.7158,3.7162,3.7232,0,0,3.7174,3.7176,0,0,0,0,0,0,0,0,3.7031,3.7038,3.7092,3.7092,3.7092,3.7123,3.7124,3.7177,3.7116,3.7106,3.711,3.7107,3.7147,3.7151,3.7165,3.7234,3.7236,3.7174,3.7177,3.7178,3.7179,0,0,0,0,0,0,0,3.7028,3.7036,3.712,3.7093,3.7093,3.7085,3.7089,3.7134,3.7138,3.7106,3.7104,3.711,3.7146,3.7161,3.7166,3.7236,3.7174,3.7178,3.718,3.7182,3.7368,3.7371,0,0,0,0,0,0,3.7026,3.7034,3.7119,3.7122,3.7055,3.7089,3.7094,3.7115,3.7138,3.7139,3.7112,3.7108,3.7155,3.7161,3.7167,3.7252,3.7178,3.7182,3.7184,3.7366,3.7369,3.7372,0,0,0,0,0,0,3.7023,3.7034,3.7117,3.7077,3.7087,3.7093,3.7118,3.7118,3.7132,3.7142,3.7143,3.7126,3.7154,3.7162,3.7217,3.7253,3.7184,3.7187,3.7363,3.7367,3.737,3.7422,0,0,0,0,0,0,3.702,3.7033,3.7059,3.7078,3.7089,3.7166,3.712,3.712,3.7139,3.7135,3.7156,3.7157,3.7153,3.7211,3.7221,3.7257,3.719,3.7359,3.7364,3.7369,3.7417,3.7427,3.7436,0,0,0,0,0,3.7016,3.7071,3.7061,3.7071,3.7122,3.7168,3.7174,3.7169,3.7142,3.7169,3.7176,3.7156,3.7248,3.7217,3.7227,3.7266,3.7357,3.7363,3.7369,3.7413,3.7425,3.7435,0,0,0,0,0,0,3.7055,3.7073,3.7062,3.7124,3.7145,3.7162,3.7195,3.7181,3.7209,3.7204,3.7196,3.7201,3.7259,3.7268,3.7233,3.7336,3.7298,3.7306,3.7328,3.734,3.7349,3.7346,3.7194,0,0,0,0,0,3.7071,3.7107,3.712,3.7174,3.7185,3.7189,3.7208,3.7203,3.7223,3.7231,3.7242,3.7263,3.7297,3.7319,3.735,3.7418,3.7423,3.745,3.746,3.7467,3.7475,3.7514,3.7527,3.7391,3.7391,3.739,0,0,3.7104,3.7119,3.7141,3.7183,3.7198,3.7236,3.7196,3.7237,3.7265,3.7237,3.7291,3.73,3.7322,3.7385,3.7413,3.7394,3.7514,3.7475,3.7481,3.7484,3.7521,3.7534,3.7545,3.7395,3.7394,3.7393,0,0,3.7184,3.7198,3.7246,3.7262,3.7286,3.7289,3.73,3.732,3.7325,3.7379,3.736,3.7393,3.7451,3.7469,3.7485,3.7576,3.7559,3.7586,3.7635,3.7673,3.7684,3.7693,3.7727,3.7739,3.7593,3.7593,3.7593,0,3.7222,3.7278,3.7272,3.7315,3.7334,3.7313,3.7362,3.7378,3.7411,3.7426,3.7404,3.7478,3.7492,3.7559,3.7582,3.7596,3.761,3.7583,3.7683,3.7692,3.7701,3.7733,3.7746,3.7596,3.7596,3.7596,3.7595,0,3.7324,3.7363,3.7399,3.7433,3.7457,3.7502,3.7504,3.7529,3.7522,3.7527,3.7583,3.7599,3.7635,3.765,3.7643,3.7718,3.7706,3.7684,3.7645,3.7717,3.7748,3.776,3.7601,3.76,3.7599,3.7598,0,0,3.7428,3.746,3.7473,3.749,3.7516,3.7546,3.7592,3.7628,3.765,3.7674,3.7713,3.7764,3.7745,3.7764,3.7759,3.7793,3.7865,3.7767,3.7767,3.7786,3.7951,3.7968,3.7982,3.7855,3.7857,3.7859,3.795,0,3.751,3.759,3.7587,3.7662,3.7699,3.7681,3.7721,3.7742,3.7749,3.7782,3.7789,3.7826,3.7797,3.7809,3.7841,3.785,3.7899,3.7843,3.7892,3.7894,3.7887,3.7998,3.8015,3.8099,3.7961,3.7963,3.7965,0,3.7616,3.7646,3.7724,3.7748,3.7763,3.7799,3.7833,3.7865,3.7889,3.7892,3.7915,3.7905,3.7953,3.7914,3.798,3.7942,3.7962,3.797,3.7973,3.7978,3.7934,3.8006,3.8126,3.8139,3.7983,3.7981,3.798,0,3.7686,3.7745,3.7801,3.7815,3.7843,3.7869,3.7882,3.7905,3.7927,3.7957,3.7972,3.8006,3.8025,3.8053,3.8054,3.8025,3.8122,3.8082,3.8126,3.8126,3.8147,3.8145,3.8273,3.8159,3.8159,3.8158,3.8158,0,3.7778,3.7827,3.7833,3.7867,3.7922,3.7919,3.7974,3.7985,3.8005,3.8042,3.8028,3.8063,3.8061,3.8097,3.8098,3.8154,3.8162,3.8166,3.8166,3.8168,3.8167,3.8181,3.8175,3.8162,3.8161,3.816,3.816,0,3.7865,3.787,3.793,3.7953,3.796,3.8,3.802,3.8053,3.8059,3.8106,3.8117,3.8127,3.8168,3.8172,3.8219,3.822,3.8288,3.8281,3.828,3.8279,3.8324,3.832,3.8464,3.8484,3.8357,3.8358,3.8359,0,3.7924,3.7961,3.7989,3.8013,3.8028,3.8067,3.809,3.8089,3.8115,3.8147,3.8177,3.8217,3.8249,3.8317,3.8329,3.8366,3.836,3.8408,3.8365,3.8367,3.8362,3.836,3.8365,3.8416,3.8418,3.8419,3.842,0,3.8028,3.803,3.8064,3.8101,3.813,3.8158,3.8185,3.8205,3.8208,3.8237,3.828,3.8305,3.8355,3.8396,3.8433,3.8447,3.8435,3.8433,3.8446,3.8448,3.8447,3.845,3.8304,3.843,3.8429,3.8428,3.8428,3.8427,3.8103,3.8137,3.8163,3.8202,3.8223,3.8249,3.8282,3.8293,3.8329,3.837,3.8368,3.8416,3.8442,3.849,3.8507,3.8545,3.8529,3.8547,3.8551,3.8556,3.8561,3.8441,3.8552,3.8552,3.8551,3.8551,3.8551,0,3.8208,3.8224,3.8261,3.83,3.8332,3.8318,3.8347,3.8375,3.8418,3.8443,3.8476,3.8526,3.8567,3.8583,3.8622,3.865,3.8646,3.8661,3.8659,3.8663,3.8573,3.8558,3.8664,3.8664,3.8664,3.8664,3.8664,3.8664,3.8266,3.8323,3.8328,3.8396,3.8412,3.8459,3.8478,3.8502,3.8523,3.858,3.8614,3.8624,3.8647,3.8689,3.8726,3.8729,3.8745,3.8763,3.8764,3.868,3.8669,3.8658,3.8645,3.8766,3.8766,3.8851,3.8852,3.8853]},{"header":{"parameterUnit":"m.s-1","parameterCategory":1,"la1":30.2991,"la2":30.254,"lo1":-89.0895,"lo2":-89.0444,"dx":0.0017,"dy":0.0017,"nx":28,"ny":28,"refTime":"2022-11-15T09:00:00:Z","depth":0,"parameterNumber":3,"parameterNumberName":"V-component_of_WINDS"},"data":[0,0,0,0,0,0,0,0,0,0,0,0,0,0,0,0,0,0,0,0,0,0,0,0,0,0,0,0,0,0,0,0,0,0,0,0,0,0,0,0,0,0,0,0,0,0,0,0,0,0,0,0,0,0,0,0,0,0,-6.2111,-6.2113,0,-6.2246,-6.2248,-6.2249,-6.226,-6.2259,-6.2257,-6.2256,-6.2388,-6.2392,-6.2397,0,0,0,0,0,0,0,0,0,0,0,0,0,-6.186,-6.1864,-6.2111,-6.2113,-6.2115,-6.2246,-6.2248,-6.2249,-6.2261,-6.2259,-6.2257,-6.2255,-6.2386,-6.2392,-6.2398,0,0,0,0,0,0,0,0,0,0,0,0,0,-6.1979,-6.1866,-6.2111,-6.2136,-6.214,-6.2245,-6.2248,-6.225,-6.2261,-6.2259,-6.2257,-6.2255,-6.2384,-6.2391,-6.2398,-6.2486,0,0,-6.2421,-6.2424,0,0,0,0,0,0,0,0,-6.1972,-6.1988,-6.2131,-6.2135,-6.2139,-6.2234,-6.2207,-6.2329,-6.2261,-6.2215,-6.2256,-6.2253,-6.2338,-6.2349,-6.2379,-6.2493,-6.2498,-6.2421,-6.2426,-6.2429,-6.2431,0,0,0,0,0,0,0,-6.1964,-6.1983,-6.2164,-6.2133,-6.2138,-6.2139,-6.2154,-6.223,-6.2287,-6.2219,-6.222,-6.2236,-6.234,-6.2372,-6.2382,-6.25,-6.2421,-6.2428,-6.2432,-6.2435,-6.2695,-6.2698,0,0,0,0,0,0,-6.1952,-6.1976,-6.216,-6.2168,-6.2049,-6.2146,-6.2162,-6.2206,-6.2286,-6.2296,-6.2238,-6.2236,-6.236,-6.2373,-6.2387,-6.2497,-6.2429,-6.2436,-6.244,-6.2693,-6.2696,-6.2699,0,0,0,0,0,0,-6.1946,-6.1968,-6.2155,-6.2073,-6.2096,-6.2152,-6.2201,-6.221,-6.2242,-6.23,-6.231,-6.226,-6.2359,-6.2376,-6.2463,-6.2501,-6.2439,-6.2446,-6.269,-6.2694,-6.2697,-6.2716,0,0,0,0,0,0,-6.1939,-6.1966,-6.2001,-6.2073,-6.2101,-6.223,-6.2204,-6.2214,-6.2255,-6.2254,-6.2324,-6.2333,-6.2359,-6.2452,-6.247,-6.251,-6.2451,-6.2687,-6.2692,-6.2696,-6.2712,-6.272,-6.2727,0,0,0,0,0,-6.193,-6.1999,-6.2002,-6.2025,-6.2146,-6.2232,-6.2247,-6.2277,-6.2258,-6.2293,-6.2331,-6.2331,-6.2494,-6.246,-6.2481,-6.2524,-6.2684,-6.269,-6.2696,-6.2709,-6.2719,-6.2727,0,0,0,0,0,0,-6.1926,-6.2009,-6.2014,-6.2108,-6.2163,-6.2234,-6.2279,-6.2286,-6.2346,-6.2342,-6.2374,-6.239,-6.2476,-6.2508,-6.2469,-6.2615,-6.2587,-6.2597,-6.259,-6.26,-6.2607,-6.2597,-6.2457,0,0,0,0,0,-6.1937,-6.2002,-6.2069,-6.2146,-6.2174,-6.2222,-6.226,-6.2279,-6.2336,-6.2359,-6.2403,-6.2457,-6.2521,-6.2562,-6.2624,-6.2717,-6.2733,-6.2757,-6.2764,-6.277,-6.2778,-6.2832,-6.2844,-6.2718,-6.2718,-6.2718,0,0,-6.1959,-6.2012,-6.205,-6.2147,-6.2192,-6.2258,-6.2241,-6.231,-6.2359,-6.2369,-6.2454,-6.2488,-6.2551,-6.2642,-6.2684,-6.2672,-6.2817,-6.2778,-6.2782,-6.2787,-6.2839,-6.2851,-6.2862,-6.2722,-6.2721,-6.272,0,0,-6.2032,-6.2079,-6.2149,-6.2196,-6.2265,-6.2297,-6.2313,-6.2384,-6.2408,-6.2495,-6.2504,-6.2562,-6.267,-6.2715,-6.2752,-6.2847,-6.2849,-6.2865,-6.2903,-6.2955,-6.2965,-6.2974,-6.3009,-6.3021,-6.2873,-6.2874,-6.2874,0,-6.205,-6.2151,-6.2184,-6.2255,-6.2297,-6.2312,-6.2383,-6.2426,-6.2511,-6.2539,-6.2525,-6.2664,-6.2707,-6.281,-6.2833,-6.2862,-6.2882,-6.2857,-6.2962,-6.2971,-6.298,-6.3013,-6.3026,-6.2875,-6.2875,-6.2875,-6.2875,0,-6.217,-6.224,-6.2288,-6.2373,-6.2421,-6.2491,-6.2535,-6.2579,-6.2594,-6.2627,-6.2716,-6.2768,-6.2842,-6.2868,-6.2881,-6.2973,-6.2964,-6.2955,-6.2928,-6.2993,-6.3025,-6.3038,-6.2877,-6.2877,-6.2876,-6.2876,0,0,-6.2243,-6.2348,-6.2365,-6.2405,-6.2484,-6.2538,-6.261,-6.2684,-6.2723,-6.2781,-6.2842,-6.2935,-6.2929,-6.2971,-6.299,-6.3035,-6.3109,-6.3022,-6.3024,-6.3037,-6.3214,-6.3221,-6.3235,-6.3111,-6.3114,-6.3116,-6.3209,0,-6.2326,-6.2456,-6.2489,-6.2599,-6.2665,-6.2681,-6.2743,-6.2798,-6.2831,-6.2891,-6.2927,-6.2993,-6.2979,-6.3005,-6.3051,-6.309,-6.3145,-6.3083,-6.3167,-6.317,-6.3152,-6.3252,-6.3258,-6.3344,-6.3222,-6.3224,-6.3226,0,-6.244,-6.2505,-6.2622,-6.2696,-6.2724,-6.278,-6.2852,-6.2909,-6.2972,-6.2993,-6.3042,-6.3057,-6.3132,-6.3102,-6.3205,-6.3163,-6.3199,-6.3224,-6.3228,-6.3237,-6.3202,-6.3264,-6.3372,-6.3385,-6.3245,-6.3244,-6.3242,0,-6.2484,-6.2599,-6.2686,-6.2719,-6.2806,-6.2845,-6.2883,-6.2944,-6.2987,-6.305,-6.3079,-6.3148,-6.3186,-6.324,-6.3273,-6.3248,-6.3374,-6.3346,-6.3394,-6.3393,-6.3419,-6.3417,-6.3535,-6.3442,-6.3442,-6.3441,-6.3441,0,-6.2573,-6.2645,-6.2707,-6.276,-6.284,-6.2878,-6.2956,-6.2994,-6.3048,-6.3108,-6.3126,-6.3181,-6.3223,-6.3284,-6.331,-6.3393,-6.3409,-6.3428,-6.3434,-6.3427,-6.3425,-6.3451,-6.3446,-6.3445,-6.3444,-6.3443,-6.3443,0,-6.2635,-6.2679,-6.2775,-6.285,-6.2871,-6.2928,-6.2992,-6.3044,-6.3078,-6.3154,-6.3174,-6.3228,-6.3301,-6.3341,-6.3431,-6.3449,-6.3542,-6.3544,-6.3522,-6.3524,-6.357,-6.3565,-6.3709,-6.373,-6.3622,-6.3623,-6.3624,0,-6.2689,-6.2745,-6.2829,-6.2871,-6.2911,-6.2979,-6.3025,-6.3063,-6.311,-6.3188,-6.323,-6.3305,-6.3367,-6.3483,-6.3529,-6.3599,-6.3604,-6.365,-6.3614,-6.3606,-6.3606,-6.3603,-6.3609,-6.3656,-6.3657,-6.3658,-6.3658,0,-6.2782,-6.2802,-6.2868,-6.2944,-6.2999,-6.3059,-6.3118,-6.3152,-6.32,-6.3252,-6.3329,-6.3377,-6.3472,-6.3546,-6.362,-6.3657,-6.3666,-6.3669,-6.3684,-6.3677,-6.3662,-6.3672,-6.3539,-6.3666,-6.3665,-6.3664,-6.3664,-6.3664,-6.2842,-6.2894,-6.2962,-6.3035,-6.3085,-6.3141,-6.3194,-6.3237,-6.3303,-6.3385,-6.3403,-6.3484,-6.3547,-6.3648,-6.3688,-6.3751,-6.3742,-6.3763,-6.3769,-6.3773,-6.3776,-6.3652,-6.3765,-6.3765,-6.3764,-6.3764,-6.3764,0,-6.2937,-6.2982,-6.305,-6.3135,-6.3193,-6.3199,-6.3266,-6.3314,-6.3386,-6.3445,-6.3507,-6.3595,-6.3668,-6.3722,-6.3796,-6.3836,-6.3842,-6.3854,-6.3852,-6.3861,-6.3779,-6.376,-6.3849,-6.3848,-6.3848,-6.3848,-6.3848,-6.3848,-6.2993,-6.3081,-6.311,-6.3223,-6.3267,-6.3349,-6.3387,-6.3438,-6.3486,-6.3585,-6.3647,-6.3682,-6.3739,-6.3818,-6.3885,-6.3899,-6.3926,-6.3938,-6.3952,-6.3875,-6.3866,-6.3857,-6.3839,-6.3943,-6.3943,-6.4028,-6.4029,-6.4029]}]]